Home > Time Zones > World Clock > Weather > Japan > Kyoto > Past weeks

Flag for Japan Weather past 2 weeks in Kyoto, Japan

Now
48 °F

Partly sunny.


Feels Like: 44 °F
Forecast: 30 / 42 °F
Wind: 10 mph from Northwest

Location: Osaka International Airport

Current Time: Dec 21, 2014 at 3:20:01 PM

Latest Report: Dec 21, 2014 at 2:00 PM


Visibility: N/A

Pressure: 29.95 "Hg

Humidity: 43%

Dew point: 27 °F

Location of KyotoLocation

Historic Weather in Kyoto — Graph

°F

Kyoto temperature yesterday

Maximum temperature yesterday: 46 °F (at 11:00 AM)
Minimum temperature yesterday: 41 °F (at 5:00 AM)
Average temperature yesterday: 45 °F

Past Weeks' High & Low Weather Summary

 TemperatureHumidityPressure
High55 °F (Dec 9, 12:00 PM)100% (Dec 11, 6:00 AM)30.51 "Hg (Dec 11, 6:00 AM)
Low30 °F (Dec 14, 6:00 AM)32% (Dec 13, 2:00 PM)29.65 "Hg (Dec 16, 1:00 PM)
Average43 °F62%30.12 "Hg
* Reported Dec 6 2:00 PM — Dec 21 2:00 PM, Kyoto, Weather by CustomWeather, © 2014

Note: Actual official high and low records may vary slightly from our data, if they occured in-between our weather recording intervals... More about our weather records

Advertising

Kyoto weather history for previous 24 hours

 ConditionsComfort  
Time TempWeatherWind HumidityBarometerVisibility
2:00 PM
Dec 21
48 °FPartly sunny.10 mph43%29.95 "HgN/A
1:00 PM48 °FPartly sunny.8 mph43%29.98 "HgN/A
12:00 PM48 °FPartly sunny.6 mph46%29.98 "HgN/A
11:00 AM48 °FPassing clouds.2 mph54%30.01 "HgN/A
10:00 AM46 °FPassing clouds.5 mph62%30.04 "HgN/A
9:00 AM41 °FPassing clouds.6 mph81%30.04 "HgN/A
8:00 AM39 °FPassing clouds.6 mph87%30.01 "HgN/A
7:00 AM37 °FPassing clouds.8 mph87%30.04 "HgN/A
6:00 AM39 °FPassing clouds.3 mph81%30.04 "HgN/A
5:00 AM37 °FPassing clouds.5 mph87%30.01 "HgN/A
8:00 PM
Dec 20
45 °FPassing clouds.2 mph93%29.92 "HgN/A
7:00 PM46 °FPassing clouds.3 mph93%29.89 "HgN/A
6:00 PM46 °FPartly cloudy.No wind93%29.89 "HgN/A
5:00 PM46 °FSprinkles. Partly cloudy.2 mph93%29.83 "HgN/A
4:00 PM45 °FSprinkles. Broken clouds.9 mph100%29.80 "HgN/A
3:00 PM46 °FRain showers. Broken clouds.12 mph93%29.80 "Hg4 mi
Weather by CustomWeather, © 2014

See weather overviewHow to use our weather pages